[[{"header":{"parameterUnit":"m.s-1","parameterCategory":1,"la1":30.2991,"la2":30.254,"lo1":-89.0895,"lo2":-89.0444,"dy":0.0017,"dx":0.0017,"nx":28,"ny":28,"refTime":"2025-09-09T09:00:00:Z","depth":0,"parameterNumber":2,"parameterNumberName":"U-component_of_WINDS"},"data":[0,0,0,0,0,0,0,0,0,0,0,0,0,0,0,0,0,0,0,0,0,0,0,0,0,0,0,0,0,0,0,0,0,0,0,0,0,0,0,0,0,0,0,0,0,0,0,0,0,0,0,0,0,0,0,0,0,0,0.1471,0.1471,0,0.1484,0.1484,0.1484,0.1538,0.1539,0.154,0.1542,0.1552,0.1551,0.155,0,0,0,0,0,0,0,0,0,0,0,0,0,0.149,0.149,0.1471,0.1471,0.1471,0.1484,0.1484,0.1484,0.1538,0.1539,0.1541,0.1542,0.1552,0.1551,0.155,0,0,0,0,0,0,0,0,0,0,0,0,0,0.149,0.1489,0.1471,0.1499,0.1502,0.1484,0.1484,0.1484,0.1537,0.1539,0.1541,0.1543,0.1553,0.1551,0.155,0.1504,0,0,0.1546,0.1545,0,0,0,0,0,0,0,0,0.149,0.149,0.1495,0.1497,0.15,0.1511,0.1495,0.1491,0.1537,0.1524,0.1542,0.1544,0.1537,0.1537,0.1535,0.1504,0.1505,0.1546,0.1545,0.1544,0.1544,0,0,0,0,0,0,0,0.149,0.1489,0.1476,0.1495,0.1498,0.1511,0.1513,0.1494,0.1519,0.1525,0.1529,0.153,0.1538,0.1536,0.1536,0.1505,0.1546,0.1545,0.1544,0.1543,0.1438,0.1436,0,0,0,0,0,0,0.1486,0.1489,0.1475,0.1476,0.15,0.1509,0.1512,0.1506,0.152,0.1524,0.1528,0.1533,0.1537,0.1537,0.1536,0.1483,0.1544,0.1543,0.1542,0.144,0.1437,0.1435,0,0,0,0,0,0,0.1487,0.1485,0.1475,0.1484,0.1483,0.1507,0.15,0.1505,0.1503,0.1522,0.1527,0.1521,0.1539,0.1538,0.1512,0.1484,0.1542,0.1541,0.1442,0.1439,0.1436,0.1376,0,0,0,0,0,0,0.1487,0.1484,0.1467,0.1483,0.1483,0.145,0.1498,0.1504,0.1501,0.1506,0.1517,0.1521,0.154,0.1514,0.151,0.1483,0.154,0.1445,0.1441,0.1437,0.138,0.1371,0.1363,0,0,0,0,0,0.1488,0.1449,0.1466,0.1464,0.1462,0.1449,0.1449,0.1473,0.1498,0.1481,0.1494,0.152,0.1488,0.151,0.1507,0.1479,0.1447,0.1442,0.1438,0.1384,0.1373,0.1363,0,0,0,0,0,0,0.1428,0.1451,0.1471,0.1436,0.144,0.1458,0.1437,0.146,0.1456,0.1461,0.1491,0.1493,0.1462,0.1469,0.1493,0.1436,0.1472,0.1467,0.1432,0.1422,0.1413,0.1411,0.1539,0,0,0,0,0,0.1411,0.1399,0.142,0.1388,0.1389,0.1413,0.1408,0.1427,0.1431,0.1433,0.1444,0.1447,0.1437,0.143,0.1423,0.1383,0.1385,0.1362,0.1353,0.1346,0.134,0.1319,0.1309,0.1421,0.1421,0.1421,0,0,0.1375,0.1387,0.1377,0.1376,0.1381,0.1368,0.1413,0.1397,0.1387,0.143,0.1406,0.1414,0.142,0.1386,0.1372,0.139,0.1311,0.1341,0.1335,0.1333,0.1314,0.1303,0.1294,0.1418,0.1418,0.1419,0,0,0.1303,0.1311,0.1285,0.129,0.1298,0.1314,0.1308,0.1323,0.133,0.1307,0.1339,0.1328,0.1311,0.1314,0.1313,0.1244,0.1268,0.1241,0.1195,0.1174,0.1165,0.1158,0.1132,0.1123,0.1236,0.1236,0.1236,0,0.1257,0.1238,0.1268,0.125,0.1248,0.1289,0.1262,0.1266,0.127,0.1268,0.1289,0.127,0.1276,0.1244,0.1227,0.1226,0.1219,0.1238,0.1165,0.1157,0.115,0.1126,0.1117,0.1232,0.1233,0.1233,0.1233,0,0.1181,0.1168,0.1146,0.1151,0.1147,0.1124,0.115,0.1143,0.1163,0.1177,0.1153,0.1163,0.1158,0.1152,0.1171,0.1123,0.1134,0.116,0.1196,0.1136,0.1113,0.1105,0.1227,0.1229,0.123,0.123,0,0,0.1068,0.1092,0.1083,0.1086,0.1099,0.1089,0.1069,0.1066,0.1058,0.1061,0.1044,0.103,0.1055,0.1054,0.1074,0.1056,0.0999,0.1084,0.1084,0.1066,0.0946,0.0925,0.0914,0.1017,0.1015,0.1014,0.0945,0,0.0998,0.0965,0.0992,0.0954,0.0942,0.0982,0.0964,0.097,0.0983,0.0974,0.0989,0.0978,0.1012,0.1012,0.0996,0.1009,0.0975,0.1015,0.1,0.0999,0.0995,0.0902,0.0879,0.0814,0.0937,0.0935,0.0934,0,0.0911,0.0911,0.0871,0.0888,0.0884,0.0868,0.0867,0.0859,0.0867,0.0878,0.0878,0.0903,0.0884,0.0922,0.0896,0.0922,0.0918,0.0924,0.0922,0.092,0.0961,0.0895,0.0794,0.0783,0.0921,0.0922,0.0923,0,0.083,0.0821,0.0796,0.0798,0.0817,0.0805,0.0812,0.0822,0.0819,0.0819,0.0817,0.0814,0.0812,0.0809,0.0833,0.0859,0.0803,0.0843,0.0811,0.081,0.0795,0.0795,0.0689,0.0796,0.0796,0.0796,0.0796,0,0.0747,0.0721,0.0761,0.0745,0.0717,0.0749,0.0721,0.0732,0.0741,0.0728,0.0764,0.075,0.0784,0.0774,0.0793,0.0768,0.0767,0.0775,0.078,0.077,0.0769,0.0766,0.077,0.0794,0.0794,0.0795,0.0795,0,0.0651,0.0677,0.0652,0.0674,0.0679,0.0657,0.0675,0.0661,0.0678,0.0661,0.0659,0.0685,0.0676,0.0701,0.0695,0.0708,0.0671,0.0684,0.0668,0.0671,0.0636,0.0639,0.0523,0.0509,0.0626,0.0625,0.0624,0,0.0595,0.0577,0.0597,0.0591,0.0597,0.0588,0.0585,0.0617,0.0612,0.0621,0.0606,0.06,0.0597,0.058,0.0598,0.0594,0.0606,0.0566,0.0606,0.0597,0.0604,0.0603,0.0601,0.0557,0.0555,0.0554,0.0553,0,0.0493,0.0507,0.0503,0.0503,0.0499,0.05,0.0504,0.0497,0.0531,0.0525,0.0516,0.0514,0.0509,0.0502,0.0503,0.051,0.0536,0.0542,0.0533,0.0522,0.0513,0.0516,0.0643,0.0543,0.0544,0.0545,0.0545,0.0546,0.0414,0.0399,0.0411,0.0405,0.0412,0.0415,0.0403,0.042,0.0414,0.0413,0.0433,0.042,0.043,0.0433,0.0438,0.0428,0.0447,0.0435,0.0432,0.0428,0.0421,0.0517,0.0429,0.0429,0.0429,0.043,0.043,0,0.0312,0.0323,0.0317,0.0322,0.0317,0.0345,0.0351,0.0345,0.0334,0.0341,0.0338,0.0329,0.0323,0.0342,0.0339,0.0328,0.034,0.0325,0.0325,0.0326,0.0406,0.0412,0.0316,0.0316,0.0316,0.0316,0.0316,0.0316,0.0258,0.0234,0.025,0.023,0.0241,0.023,0.0231,0.0234,0.024,0.0228,0.0224,0.0238,0.0249,0.0248,0.0244,0.025,0.0246,0.0227,0.0236,0.031,0.0321,0.0331,0.0337,0.0226,0.0226,0.0157,0.0157,0.0156]},{"header":{"parameterUnit":"m.s-1","parameterCategory":1,"la1":30.2991,"la2":30.254,"lo1":-89.0895,"lo2":-89.0444,"dy":0.0017,"dx":0.0017,"nx":28,"ny":28,"refTime":"2025-09-09T09:00:00:Z","depth":0,"parameterNumber":3,"parameterNumberName":"V-component_of_WINDS"},"data":[0,0,0,0,0,0,0,0,0,0,0,0,0,0,0,0,0,0,0,0,0,0,0,0,0,0,0,0,0,0,0,0,0,0,0,0,0,0,0,0,0,0,0,0,0,0,0,0,0,0,0,0,0,0,0,0,0,0,-4.3726,-4.3727,0,-4.3803,-4.3804,-4.3805,-4.3746,-4.3743,-4.3741,-4.3738,-4.3813,-4.3817,-4.3821,0,0,0,0,0,0,0,0,0,0,0,0,0,-4.3522,-4.3526,-4.3726,-4.3727,-4.3728,-4.3803,-4.3804,-4.3805,-4.3746,-4.3743,-4.374,-4.3737,-4.3812,-4.3817,-4.3822,0,0,0,0,0,0,0,0,0,0,0,0,0,-4.3606,-4.3527,-4.3726,-4.3708,-4.3707,-4.3803,-4.3804,-4.3806,-4.3747,-4.3743,-4.3739,-4.3736,-4.381,-4.3816,-4.3823,-4.394,0,0,-4.3843,-4.3845,0,0,0,0,0,0,0,0,-4.3601,-4.3614,-4.3709,-4.3709,-4.3708,-4.3761,-4.376,-4.385,-4.3748,-4.3732,-4.3738,-4.3734,-4.3799,-4.3806,-4.3829,-4.3943,-4.3946,-4.3843,-4.3847,-4.385,-4.3852,0,0,0,0,0,0,0,-4.3596,-4.361,-4.3756,-4.3711,-4.371,-4.3694,-4.3702,-4.3777,-4.3785,-4.3733,-4.3729,-4.3739,-4.3797,-4.3822,-4.383,-4.3947,-4.3843,-4.3849,-4.3853,-4.3855,-4.4161,-4.4165,0,0,0,0,0,0,-4.3592,-4.3605,-4.3754,-4.3759,-4.3645,-4.3701,-4.3709,-4.3748,-4.3784,-4.3786,-4.3742,-4.3736,-4.3813,-4.3822,-4.3832,-4.3971,-4.385,-4.3856,-4.386,-4.4156,-4.4161,-4.4166,0,0,0,0,0,0,-4.3588,-4.3606,-4.3751,-4.3681,-4.3698,-4.3708,-4.3752,-4.3752,-4.3776,-4.3792,-4.3792,-4.3766,-4.381,-4.3823,-4.3913,-4.3973,-4.3859,-4.3865,-4.4151,-4.4158,-4.4164,-4.425,0,0,0,0,0,0,-4.3583,-4.3605,-4.3651,-4.3683,-4.3702,-4.3833,-4.3756,-4.3756,-4.3788,-4.3781,-4.3814,-4.3816,-4.3808,-4.3904,-4.392,-4.398,-4.387,-4.4146,-4.4154,-4.4162,-4.4242,-4.4258,-4.4272,0,0,0,0,0,-4.3575,-4.3671,-4.3653,-4.3672,-4.376,-4.3836,-4.3847,-4.3838,-4.3794,-4.3839,-4.3848,-4.3815,-4.3964,-4.3914,-4.3931,-4.3994,-4.4142,-4.4152,-4.4161,-4.4235,-4.4255,-4.4272,0,0,0,0,0,0,-4.3644,-4.3675,-4.3656,-4.3765,-4.3799,-4.3826,-4.3883,-4.3859,-4.3905,-4.3896,-4.3881,-4.3889,-4.3984,-4.3998,-4.3941,-4.4108,-4.4046,-4.4059,-4.4096,-4.4115,-4.413,-4.4124,-4.3876,0,0,0,0,0,-4.3672,-4.3733,-4.3756,-4.385,-4.3868,-4.3873,-4.3905,-4.3895,-4.3929,-4.3942,-4.3959,-4.3991,-4.4045,-4.4081,-4.4131,-4.4243,-4.4249,-4.4295,-4.431,-4.4323,-4.4334,-4.4393,-4.4414,-4.4197,-4.4197,-4.4197,0,0,-4.373,-4.3754,-4.3793,-4.3864,-4.3889,-4.3951,-4.3885,-4.3953,-4.3998,-4.3952,-4.4039,-4.4052,-4.4087,-4.4189,-4.4234,-4.4204,-4.4395,-4.4335,-4.4345,-4.4349,-4.4405,-4.4426,-4.4444,-4.4203,-4.4202,-4.4201,0,0,-4.3867,-4.3892,-4.3973,-4.4,-4.4039,-4.4042,-4.4061,-4.4093,-4.41,-4.4187,-4.4154,-4.4206,-4.43,-4.4326,-4.4352,-4.4499,-4.447,-4.4516,-4.4596,-4.4654,-4.4671,-4.4686,-4.4738,-4.4756,-4.4528,-4.4528,-4.4528,0,-4.3934,-4.4027,-4.4017,-4.4088,-4.412,-4.4083,-4.4163,-4.4189,-4.4242,-4.4264,-4.4229,-4.4345,-4.4367,-4.4473,-4.451,-4.4532,-4.4552,-4.4512,-4.467,-4.4685,-4.4698,-4.4747,-4.4767,-4.4533,-4.4533,-4.4532,-4.4532,0,-4.4107,-4.4172,-4.4232,-4.4286,-4.4324,-4.44,-4.44,-4.4439,-4.4426,-4.4432,-4.452,-4.4545,-4.4599,-4.4624,-4.4611,-4.4729,-4.4708,-4.4672,-4.4609,-4.4725,-4.477,-4.4789,-4.4541,-4.4539,-4.4537,-4.4536,0,0,-4.4288,-4.4337,-4.4359,-4.4383,-4.4423,-4.4473,-4.4546,-4.4601,-4.4635,-4.4672,-4.4732,-4.4813,-4.4779,-4.4809,-4.4798,-4.4849,-4.4963,-4.4806,-4.4807,-4.4834,-4.5094,-4.512,-4.5142,-4.4945,-4.4948,-4.4951,-4.509,0,-4.4427,-4.4557,-4.455,-4.467,-4.4729,-4.4695,-4.4759,-4.479,-4.4797,-4.4847,-4.4854,-4.4911,-4.4864,-4.4881,-4.493,-4.4939,-4.5015,-4.4929,-4.4998,-4.5001,-4.499,-4.5166,-4.5194,-4.5325,-4.5108,-4.5111,-4.5113,0,-4.4606,-4.4652,-4.4779,-4.481,-4.4835,-4.4893,-4.4942,-4.4991,-4.5025,-4.5026,-4.506,-4.5041,-4.5113,-4.5049,-4.5147,-4.5089,-4.5117,-4.5126,-4.513,-4.5135,-4.5064,-4.5175,-4.5366,-4.5385,-4.5142,-4.5139,-4.5137,0,-4.4725,-4.4818,-4.4906,-4.4927,-4.4967,-4.5008,-4.5026,-4.5056,-4.5089,-4.5132,-4.5153,-4.5203,-4.523,-4.5269,-4.5263,-4.5217,-4.5363,-4.5299,-4.5365,-4.5365,-4.5397,-4.5394,-4.5594,-4.5417,-4.5416,-4.5416,-4.5416,0,-4.488,-4.4958,-4.496,-4.5014,-4.5101,-4.5091,-4.5177,-4.519,-4.5217,-4.5272,-4.5245,-4.5296,-4.5286,-4.5337,-4.5333,-4.5415,-4.5427,-4.5429,-4.5427,-4.5432,-4.5431,-4.5449,-4.5439,-4.5421,-4.542,-4.5419,-4.5418,0,-4.5027,-4.5031,-4.5124,-4.5155,-4.5164,-4.5226,-4.5251,-4.5301,-4.5307,-4.5376,-4.5392,-4.54,-4.5458,-4.5457,-4.5523,-4.552,-4.562,-4.5608,-4.5609,-4.5606,-4.5672,-4.5666,-4.5889,-4.5917,-4.5723,-4.5725,-4.5726,0,-4.5125,-4.5185,-4.5222,-4.5257,-4.5278,-4.5336,-4.537,-4.5363,-4.5399,-4.5442,-4.5487,-4.5544,-4.5588,-4.5683,-4.5694,-4.5744,-4.5732,-4.5807,-4.5739,-4.5741,-4.5732,-4.5728,-4.5733,-4.5819,-4.5822,-4.5823,-4.5825,0,-4.5298,-4.5297,-4.5349,-4.5401,-4.5443,-4.5484,-4.5521,-4.5551,-4.5547,-4.5589,-4.565,-4.5685,-4.5753,-4.5809,-4.5857,-4.5873,-4.5848,-4.5846,-4.5864,-4.5868,-4.5866,-4.5867,-4.5644,-4.5841,-4.5839,-4.5838,-4.5837,-4.5837,-4.5423,-4.5475,-4.5509,-4.5567,-4.5594,-4.563,-4.5678,-4.569,-4.5741,-4.5797,-4.5789,-4.5857,-4.5888,-4.595,-4.5971,-4.6023,-4.5996,-4.6022,-4.6028,-4.6035,-4.6042,-4.586,-4.6031,-4.6031,-4.603,-4.603,-4.603,0,-4.5594,-4.5615,-4.5668,-4.5722,-4.5767,-4.5742,-4.5781,-4.582,-4.588,-4.5912,-4.5957,-4.6026,-4.608,-4.6095,-4.6147,-4.6185,-4.6175,-4.6199,-4.6195,-4.6199,-4.6063,-4.6042,-4.6206,-4.6206,-4.6206,-4.6206,-4.6206,-4.6206,-4.5688,-4.5774,-4.5778,-4.5876,-4.5895,-4.5962,-4.5987,-4.6019,-4.6045,-4.6123,-4.6169,-4.6179,-4.6204,-4.6257,-4.6305,-4.6308,-4.6327,-4.6356,-4.6354,-4.6226,-4.6209,-4.6192,-4.6172,-4.6361,-4.6361,-4.6486,-4.6487,-4.6488]}]]